This demonstration page uses our WeatherBlox Daily Observations layout. Learn more.

Left ArrowRight Arrow

Hourly Observations for April 3, 2020

Temp ( °F °C ) Dew Point ( °F °C ) Humidity (%) Winds ( mph kmh ) Pressure ( in mb ) Visibility ( mi km ) Precip ( " mm )
12:15 am 00:15 Cloudy 21 -6 17 -8.4 83 83 NNW 15 24 30.34 1028 10 16.0934 0 0
12:35 am 00:35 Cloudy 21 -6 17 -8.5 83 83 N 14 22 30.33 1027 10 16.0934 0 0
12:55 am 00:55 Cloudy 22 -5.8 17 -8.3 83 83 NNW 15 24 30.32 1027 10 16.0934 0 0
1:15 am 01:15 Cloudy 21 -6 16 -8.7 81 81 NNW 16 26 30.34 1028 10 16.0934 0 0
1:35 am 01:35 Cloudy 21 -6.1 16 -9 80 80 NNW 20 31 30.33 1027 10 16.0934 0 0
1:55 am 01:55 Cloudy with Light Snow 20 -6.5 17 -8.5 86 86 NNW 16 26 30.33 1027 3 4.82802 0 0
2:15 am 02:15 Cloudy 20 -6.5 16 -8.7 85 85 N 18 30 30.34 1027 10 16.0934 0 0
2:35 am 02:35 Cloudy 20 -6.6 16 -9 83 83 N 16 26 30.34 1027 10 16.0934 0 0
2:55 am 02:55 Cloudy 20 -6.5 15 -9.2 81 81 NNW 18 30 30.33 1027 10 16.0934 0 0
3:15 am 03:15 Cloudy 20 -6.6 15 -9.4 81 81 NNW 20 31 30.33 1027 10 16.0934 0 0
3:35 am 03:35 Mostly Cloudy 20 -6.7 15 -9.5 81 81 NNW 18 30 30.33 1027 10 16.0934 0 0
3:55 am 03:55 Cloudy 20 -6.5 16 -9.1 82 82 N 16 26 30.35 1028 10 16.0934 0 0
4:15 am 04:15 Cloudy 20 -6.5 16 -9 83 83 NNW 14 22 30.34 1027 10 16.0934 0 0
4:35 am 04:35 Cloudy 20 -6.5 16 -8.9 83 83 NNW 13 20 30.35 1028 10 16.0934 0 0
4:55 am 04:55 Cloudy 20 -6.5 16 -9 83 83 NNW 17 28 30.36 1028 10 16.0934 0 0
5:15 am 05:15 Cloudy 20 -6.7 15 -9.5 81 81 NNW 10 17 30.36 1028 10 16.0934 0 0
5:35 am 05:35 Cloudy 20 -6.5 15 -9.5 80 80 NNW 13 20 30.35 1028 10 16.0934 0 0
5:55 am 05:55 Cloudy 20 -6.5 16 -9.1 82 82 NNW 14 22 30.36 1028 10 16.0934 0 0
6:15 am 06:15 Cloudy 20 -6.5 15 -9.3 81 81 NNW 13 20 30.36 1028 10 16.0934 0 0
6:35 am 06:35 Cloudy 20 -6.8 14 -10 78 78 NNW 16 26 30.37 1029 10 16.0934 0 0
6:55 am 06:55 Cloudy 19 -7 14 -10.1 79 79 NNW 14 22 30.38 1029 10 16.0934 0 0
7:15 am 07:15 Cloudy 19 -7 14 -10.1 79 79 NNW 16 26 30.39 1029 10 16.0934 0 0
7:35 am 07:35 Cloudy 19 -7.2 13 -10.8 76 76 N 15 24 30.4 1029 10 16.0934 0 0
7:55 am 07:55 Cloudy 19 -7 13 -10.6 76 76 N 16 26 30.4 1030 10 16.0934 0 0
8:15 am 08:15 Cloudy 19 -7 13 -10.5 76 76 NNW 15 24 30.41 1030 10 16.0934 0 0
8:35 am 08:35 Cloudy 20 -6.7 14 -10.2 76 76 NNW 16 26 30.42 1030 10 16.0934 0 0
8:55 am 08:55 Partly Cloudy 20 -6.7 13 -10.5 75 75 N 16 26 30.43 1031 10 16.0934 0 0
9:15 am 09:15 Mostly Cloudy 22 -5.8 15 -9.6 75 75 NNW 14 22 30.41 1030 10 16.0934 0 0
9:35 am 09:35 Mostly Cloudy 21 -6.3 13 -10.5 72 72 N 15 24 30.42 1030 10 16.0934 0 0
9:55 am 09:55 Cloudy 22 -5.6 15 -9.3 75 75 NNW 14 22 30.42 1030 10 16.0934 0 0
10:15 am 10:15 Mostly Cloudy 22 -5.4 15 -9.2 75 75 N 14 22 30.43 1030 10 16.0934 0 0
10:35 am 10:35 Sunny 23 -4.9 17 -8.6 76 76 N 13 20 30.42 1030 10 16.0934 0 0
10:55 am 10:55 Partly Cloudy 24 -4.2 18 -8 75 75 NNW 13 20 30.42 1030 10 16.0934 0 0
11:15 am 11:15 Partly Cloudy 26 -3.5 19 -7.3 75 75 N 13 20 30.41 1030 10 16.0934 0 0
11:35 am 11:35 Partly Cloudy 26 -3.1 20 -6.6 77 77 NNW 14 22 30.41 1030 10 16.0934 0 0
11:55 am 11:55 Mostly Cloudy 27 -2.6 20 -6.4 75 75 N 12 19 30.4 1029 10 16.0934 0 0
12:15 pm 12:15 Mostly Cloudy 29 -1.9 22 -5.6 76 76 N 9 15 30.38 1029 10 16.0934 0 0
12:35 pm 12:35 Cloudy 29 -1.5 22 -5.3 76 76 NNW 9 15 30.38 1029 10 16.0934 0 0
12:55 pm 12:55 Cloudy 30 -1.1 23 -5.1 75 75 N 10 17 30.37 1028 10 16.0934 0 0
1:15 pm 13:15 Cloudy 31 -0.4 24 -4.7 73 73 NNW 10 17 30.36 1028 10 16.0934 0 0
1:35 pm 13:35 Cloudy 32 -0.2 23 -4.8 71 71 N 15 24 30.35 1028 10 16.0934 0 0
1:55 pm 13:55 Cloudy 32 0.2 24 -4.6 70 70 N 12 19 30.33 1027 10 16.0934 0 0
2:15 pm 14:15 Cloudy 33 0.7 24 -4.4 69 69 NNW 8 13 30.32 1027 10 16.0934 0 0
2:35 pm 14:35 Cloudy 35 1.5 25 -4.1 67 67 N 13 20 30.31 1026 10 16.0934 0 0
2:55 pm 14:55 Cloudy 34 1.3 24 -4.5 66 66 N 10 17 30.3 1026 10 16.0934 0 0
3:15 pm 15:15 Mostly Cloudy 35 1.8 24 -4.5 63 63 N 10 17 30.29 1026 10 16.0934 0 0
3:55 pm 15:55 Mostly Cloudy 37 2.6 24 -4.6 59 59 NNW 12 19 30.28 1025 10 16.0934 0 0
4:15 pm 16:15 Partly Cloudy 38 3.2 24 -4.2 59 59 N 10 17 30.27 1025 10 16.0934 0 0
4:35 pm 16:35 Sunny 39 3.7 24 -4.4 56 56 N 12 19 30.26 1025 10 16.0934 0 0
4:55 pm 16:55 Sunny 39 3.7 24 -4.6 55 55 N 8 13 30.26 1025 10 16.0934 0 0
5:15 pm 17:15 Sunny 39 4 24 -4.5 54 54 NNE 10 17 30.26 1025 10 16.0934 0 0
5:35 pm 17:35 Sunny 39 4 24 -4.4 55 55 NNE 12 19 30.25 1024 10 16.0934 0 0
5:55 pm 17:55 Sunny 39 4 24 -4.5 54 54 NNE 10 17 30.25 1024 10 16.0934 0 0
6:15 pm 18:15 Sunny 39 4 24 -4.7 53 53 N 12 19 30.25 1024 10 16.0934 0 0
6:35 pm 18:35 Sunny 39 3.8 24 -4.4 55 55 NNE 12 19 30.25 1024 10 16.0934 0 0
6:55 pm 18:55 Sunny 38 3.3 24 -4.5 57 57 NE 13 20 30.25 1025 10 16.0934 0 0
7:15 pm 19:15 Sunny 37 2.7 24 -4.4 60 60 ENE 12 19 30.27 1025 10 16.0934 0 0
7:35 pm 19:35 Sunny 36 2.1 24 -4.5 62 62 NE 10 17 30.28 1025 10 16.0934 0 0
7:55 pm 19:55 Sunny 34 1.1 24 -4.5 67 67 NE 9 15 30.28 1026 10 16.0934 0 0
8:15 pm 20:15 Clear 32 0 24 -4.7 71 71 ENE 8 13 30.3 1026 10 16.0934 0 0
8:35 pm 20:35 Clear 30 -1.3 23 -4.9 77 77 ENE 8 13 30.31 1026 10 16.0934 0 0
8:55 pm 20:55 Clear 28 -2 23 -5 80 80 ENE 8 13 30.31 1027 10 16.0934 0 0
9:15 pm 21:15 Clear 28 -2 23 -4.9 81 81 ENE 8 13 30.32 1027 10 16.0934 0 0
9:35 pm 21:35 Clear 28 -2.5 23 -5 83 83 ENE 8 13 30.33 1027 10 16.0934 0 0
9:55 pm 21:55 Clear 27 -3 23 -5.2 85 85 ENE 7 11 30.34 1028 10 16.0934 0 0
10:15 pm 22:15 Clear 25 -3.8 22 -5.7 87 87 NE 7 11 30.35 1028 10 16.0934 0 0
10:35 pm 22:35 Clear 26 -3.5 23 -5.2 88 88 NE 8 13 30.36 1028 10 16.0934 0 0
10:55 pm 22:55 Clear 26 -3.2 23 -5 88 88 ENE 7 11 30.37 1028 10 16.0934 0 0
11:15 pm 23:15 Clear 25 -4.1 22 -5.7 89 89 E 5 7 30.38 1029 10 16.0934 0 0
11:35 pm 23:35 Clear 24 -4.3 22 -5.8 89 89 E 5 7 30.39 1029 10 16.0934 0 0
11:55 pm 23:55 Clear 24 -4.7 21 -6.1 90 90 Calm 30.39 1029 10 16.0934 0 0

Powered by AerisWeather